This demonstration page uses our WeatherBlox Daily Observations layout. Learn more.

Left ArrowRight Arrow

53.62937, 11.41316

Hourly Observations for May 16, 2016

Temp ( °F °C ) Dew Point ( °F °C ) Humidity (%) Winds ( mph kmh ) Pressure ( in mb ) Visibility ( mi km ) Precip ( " mm )
6:20 am 06:20 Mostly Cloudy 41 5 39 4 93 93 W 9 15 29.94 1014 30 48 N/A
6:50 am 06:50 Partly Cloudy 39 4 39 4 100 100 WSW 10 17 29.94 1014 30 48 N/A
7:20 am 07:20 Partly Cloudy 41 5 39 4 93 93 WSW 8 13 29.94 1014 30 48 N/A
7:50 am 07:50 Partly Cloudy 45 7 41 5 87 87 W 9 15 29.94 1014 30 48 N/A
8:20 am 08:20 Partly Cloudy 46 8 41 5 82 82 W 14 22 29.94 1014 30 48 N/A
8:50 am 08:50 Partly Cloudy 46 8 39 4 76 76 W 13 20 29.94 1014 30 48 N/A
9:20 am 09:20 Partly Cloudy 48 9 39 4 71 71 W 15 24 29.94 1014 30 48 N/A
9:50 am 09:50 Partly Cloudy 50 10 41 5 71 71 W 14 22 29.94 1014 30 48 N/A
10:20 am 10:20 Mostly Cloudy 52 11 41 5 67 67 W 16 26 29.94 1014 30 48 N/A
10:50 am 10:50 Mostly Cloudy 52 11 39 4 62 62 WNW 14 22 29.94 1014 30 48 N/A
11:20 am 11:20 Partly Cloudy 52 11 39 4 62 62 W 16 26 29.94 1014 30 48 N/A
11:50 am 11:50 Partly Cloudy 54 12 37 3 54 54 W 15 24 29.94 1014 30 48 N/A
12:20 pm 12:20 Partly Cloudy 55 13 39 4 55 55 W 15 24 29.94 1014 30 48 N/A
12:50 pm 12:50 Partly Cloudy 55 13 37 3 51 51 WSW 18 30 29.94 1014 30 48 N/A
1:20 pm 13:20 Mostly Cloudy 55 13 37 3 51 51 WSW 17 28 29.94 1014 30 48 N/A
1:50 pm 13:50 Mostly Sunny 54 12 37 3 54 54 W 17 28 29.94 1014 7 11 N/A
2:20 pm 14:20 Mostly Sunny 54 12 37 3 54 54 W 16 26 29.94 1014 7 11 N/A
2:50 pm 14:50 Mostly Sunny 55 13 36 2 47 47 WSW 17 28 29.94 1014 7 11 N/A
3:20 pm 15:20 Mostly Sunny 55 13 36 2 47 47 W 15 24 29.91 1013 7 11 N/A
3:50 pm 15:50 Mostly Sunny 55 13 36 2 47 47 WSW 16 26 29.91 1013 7 11 N/A
4:20 pm 16:20 Mostly Sunny 57 14 36 2 44 44 WSW 17 28 29.91 1013 7 11 N/A
4:50 pm 16:50 Mostly Sunny 54 12 36 2 51 51 W 17 28 29.91 1013 7 11 N/A
5:20 pm 17:20 Mostly Sunny 55 13 34 1 44 44 W 16 26 29.91 1013 7 11 N/A
5:50 pm 17:50 Mostly Sunny 57 14 34 1 41 41 W 18 30 29.91 1013 7 11 N/A
6:20 pm 18:20 Mostly Sunny 55 13 36 2 47 47 W 20 31 29.91 1013 7 11 N/A
6:50 pm 18:50 Mostly Sunny 54 12 36 2 51 51 WNW 15 24 29.91 1013 7 11 N/A

Powered by AerisWeather